sat.trackr.live / text

‹ back to catalog

STARLINK-35847

NORAD 66621 · 2025-271E

PAYLOAD ACTIVE UNKNOWN

§ Identity

Operator
Country
US
Launch date
2025-11-23
Launch site
AFWTR
Launch vehicle
Mass (kg)
RCS (m²)

Purposes: comms

External: N2YO · Heavens-Above · Gunter

§ Orbital elements

Epoch: 2026-09-20T10:57:15.893280Z

Period
93.85 min
Inclination
53.1587°
Eccentricity
0.0001412
Mean motion
15.34404792 rev/d
Perigee alt
461.7 km
Apogee alt
463.7 km
Semi-major
6,840.8 km
B*
6.3440e-4
RAAN
314.0310°
Arg perigee
78.8775°
Mean anomaly
281.2387°
Rev number
4,740

§ Raw data

STARLINK-358471 66621U 25271E   26263.45643395  .00021122  00000+0  63440-3 0  99932 66621  53.1587 314.0310 0001412  78.8775 281.2387 15.34404792 47409

JSON: /api/v1/satellites/66621 · /tle

For live sub-satellite position, see the globe view (requires WebGL).

§ Visibility from observer

Set your observer location to see the next 7 days of passes ≥ 10°. The values pass through the URL so the page stays shareable.

No JS? Fill the form by hand. The geolocation button needs JavaScript.